Dubuque, IA

3:31 PM CST on December 08, 2019 (GMT -0600)
Dubuque Regional

Weather History for KDBQ - October, 2019

Change the Weather History Date:

Tuesday, October 1, 2019

  Actual Average Record
Temperature  
Mean Temperature 74 °F 56 °F  
Max Temperature 80 °F 66 °F 88 °F (1976)
Min Temperature 68 °F 45 °F 26 °F (2003)
Degree Days  
Heating Degree Days 0 10  
Month to date heating degree days 10  
Since 1 July heating degree days 188  
Cooling Degree Days 8 1  
Month to date cooling degree days 1  
Year to date cooling degree days 638  
Growing Degree Days 24 (Base 50)    
Moisture  
Dew Point 70 °F    
Average Humidity 90    
Maximum Humidity 100    
Minimum Humidity 81    
Precipitation  
Precipitation 2.51 in 0.09 in 1.38 in (2018)
Month to date precipitation 0.09  
Year to date precipitation 29.53  
Snow  
Snow - 0.00 in - ()
Month to date snowfall 0.0  
Since 1 July snowfall 0.0  
Since 1 September snowfall 0.0  
Snow Depth -    
Sea Level Pressure  
Sea Level Pressure 29.88 in    
Wind  
Wind Speed 9 mph ()    
Max Wind Speed 32 mph    
Max Gust Speed 53 mph    
Visibility 6.8 miles    
Events Fog , Rain , Thunderstorm    
T = Trace of Precipitation, MM = Missing Value Source: Averaged Metar Reports

Daily Weather History Graph

Daily Weather History Graph

Search for Another Location

Airport or City:

Astronomy

Oct. 01, 2019 Rise Set
Actual Time 6:59 AM CDT 6:44 PM CDT
Civil Twilight 6:31 AM CDT 7:12 PM CDT
Nautical Twilight 5:59 AM CDT 7:45 PM CDT
Astronomical Twilight 5:26 AM CDT 8:18 PM CDT
Moon 10:19 AM CDT (10/1) 8:54 PM CDT (10/1)
Length of Visible Light 12h 40m
Length of Day
11h 44m
Waxing Crescent, 12% of the Moon is Illuminated
Oct 1
Waxing Crescent
Oct 5
First Quarter
Oct 13
Full
Oct 21
Last Quarter
Oct 27
New

Hourly Weather History & Observations

Time (CDT) Temp. Dew Point Humidity Pressure Visibility Wind Dir Wind Speed Gust Speed Precip Events Conditions
12:53 AM 71.1 °F 69.1 °F 93% 29.89 in 10.0 mi SSW 9.2 mph - N/A   Clear
1:53 AM 72.0 °F 69.1 °F 91% 29.89 in 10.0 mi SSW 9.2 mph - N/A   Clear
2:53 AM 71.1 °F 68.0 °F 90% 29.89 in 10.0 mi SSW 9.2 mph - N/A   Clear
3:53 AM 71.1 °F 68.0 °F 90% 29.88 in 10.0 mi SSW 8.1 mph - N/A   Partly Cloudy
4:53 AM 72.0 °F 68.0 °F 87% 29.89 in 10.0 mi SW 6.9 mph - N/A   Clear
5:53 AM 71.1 °F 68.0 °F 90% 29.89 in 10.0 mi SSW 6.9 mph - N/A   Clear
6:53 AM 70.0 °F 68.0 °F 93% 29.89 in 10.0 mi South 8.1 mph - N/A   Clear
7:53 AM 71.1 °F 68.0 °F 90% 29.89 in 10.0 mi South 10.4 mph - N/A   Partly Cloudy
8:40 AM 71.6 °F 68.0 °F 88% 29.91 in 10.0 mi SSW 8.1 mph - N/A Thunderstorm Thunderstorm
8:53 AM 71.6 °F 68.0 °F 88% 29.90 in 10.0 mi SSW 9.2 mph - N/A Thunderstorm Thunderstorm
9:09 AM 70.0 °F 69.1 °F 97% 29.93 in 2.5 mi SSW 10.4 mph - N/A Rain , Thunderstorm Heavy Rain
9:18 AM 71.1 °F 69.1 °F 93% 29.93 in 8.0 mi SW 10.4 mph - N/A Rain , Thunderstorm Light Rain
9:37 AM 71.1 °F 70.0 °F 96% 29.93 in 10.0 mi SW 8.1 mph - N/A   Mostly Cloudy
9:53 AM 72.0 °F 70.0 °F 93% 29.91 in 10.0 mi SSW 8.1 mph - 0.04 in   Mostly Cloudy
10:53 AM 72.0 °F 70.0 °F 93% 29.91 in 10.0 mi SSW 8.1 mph - N/A   Overcast
11:02 AM 73.0 °F 71.1 °F 93% 29.92 in 10.0 mi South 9.2 mph - N/A   Mostly Cloudy
11:19 AM 73.0 °F 71.1 °F 93% 29.93 in 4.0 mi SSW 10.4 mph - 0.02 in Rain , Thunderstorm Light Rain
11:28 AM 73.0 °F 72.0 °F 96% 29.93 in 10.0 mi SW 6.9 mph - N/A   Overcast
11:53 AM 73.9 °F 72.0 °F 93% 29.91 in 10.0 mi SW 9.2 mph - 0.02 in   Overcast
12:53 PM 77.0 °F 73.0 °F 88% 29.91 in 10.0 mi SW 11.5 mph - N/A   Overcast
1:53 PM 78.1 °F 73.0 °F 84% 29.88 in 10.0 mi SSW 8.1 mph - 0.00 in   Overcast
2:53 PM 78.1 °F 73.0 °F 84% 29.87 in 10.0 mi SSW 5.8 mph - N/A   Overcast
3:53 PM 79.0 °F 73.0 °F 82% 29.86 in 10.0 mi South 8.1 mph - N/A   Overcast
4:53 PM 79.0 °F 73.9 °F 84% 29.84 in 10.0 mi South 6.9 mph - N/A   Overcast
5:53 PM 78.1 °F 73.9 °F 87% 29.83 in 10.0 mi South 6.9 mph - N/A   Mostly Cloudy
6:53 PM 75.9 °F 73.0 °F 91% 29.81 in 10.0 mi SSE 6.9 mph - N/A   Scattered Clouds
7:48 PM 75.2 °F 73.4 °F 94% 29.82 in 10.0 mi SSE 10.4 mph - 0.00 in Rain , Thunderstorm Light Rain
7:53 PM 77.0 °F 73.0 °F 88% 29.80 in 10.0 mi South 13.8 mph - 0.00 in Rain , Thunderstorm Light Thunderstorms and Rain
8:05 PM 75.0 °F 72.0 °F 90% 29.93 in 1.5 mi West 32.2 mph 51.8 mph 0.00 in Rain , Thunderstorm Light Thunderstorms and Rain
8:10 PM 70.0 °F 70.0 °F 100% 29.88 in 0.5 mi West 28.8 mph 51.8 mph 0.10 in Fog , Rain , Thunderstorm Heavy Thunderstorms and Rain
8:13 PM 70.0 °F 68.0 °F 93% 29.86 in 0.2 mi WSW 28.8 mph 52.9 mph 0.39 in Fog , Rain , Thunderstorm Heavy Thunderstorms and Rain
8:21 PM 71.1 °F 68.0 °F 90% 29.85 in 0.8 mi WNW 15.0 mph 49.5 mph 0.88 in Rain , Thunderstorm Heavy Thunderstorms and Rain
8:25 PM 70.0 °F 64.9 °F 84% 29.85 in 2.5 mi West 8.1 mph 27.6 mph 0.92 in Rain , Thunderstorm Heavy Thunderstorms and Rain
8:32 PM 71.1 °F 64.9 °F 81% 29.86 in 9.0 mi West 11.5 mph 19.6 mph 0.95 in Rain , Thunderstorm Light Thunderstorms and Rain
8:37 PM 71.1 °F 64.9 °F 81% 29.86 in 10.0 mi WNW 6.9 mph - 0.96 in Rain , Thunderstorm Light Rain
8:53 PM 71.1 °F - N/A% 29.86 in 7.0 mi NW 6.9 mph - 0.96 in Rain , Thunderstorm Light Rain
9:00 PM 70.0 °F - N/A% 29.87 in 1.8 mi North 9.2 mph - 0.03 in Rain , Thunderstorm Heavy Rain
9:07 PM 70.0 °F - N/A% 29.88 in 1.2 mi NNW 13.8 mph - 0.16 in Rain , Thunderstorm Heavy Thunderstorms and Rain
9:15 PM 69.1 °F - N/A% 29.89 in 0.8 mi North 17.3 mph 26.5 mph 0.34 in Rain , Thunderstorm Heavy Thunderstorms and Rain
9:24 PM 68.0 °F - N/A% 29.89 in 1.0 mi North 13.8 mph 25.3 mph 0.77 in Rain , Thunderstorm Heavy Thunderstorms and Rain
9:36 PM 68.0 °F - N/A% 29.88 in 2.0 mi North 16.1 mph 23.0 mph 1.01 in Rain , Thunderstorm Heavy Rain
9:42 PM 68.0 °F - N/A% 29.90 in 3.0 mi North 11.5 mph 23.0 mph 1.07 in Rain , Thunderstorm Rain
9:50 PM 68.0 °F - N/A% 29.91 in 1.8 mi North 5.8 mph - 1.12 in Rain , Thunderstorm Heavy Rain
9:53 PM 68.0 °F - N/A% 29.91 in 1.5 mi NNW 5.8 mph - 1.21 in Rain , Thunderstorm Heavy Rain
10:04 PM 68.0 °F - N/A% 29.91 in 3.0 mi NNE 8.1 mph - 0.07 in Rain , Thunderstorm Rain
10:14 PM 68.0 °F - N/A% 29.89 in 6.0 mi ENE 6.9 mph - 0.08 in Rain Rain
10:53 PM 68.0 °F - N/A% 29.85 in 6.0 mi NNE 9.2 mph - 0.15 in Rain Light Rain
11:25 PM 68.0 °F - N/A% 29.87 in 1.8 mi East 3.5 mph - 0.04 in Rain Heavy Rain
11:32 PM 68.0 °F - N/A% 29.85 in 3.0 mi East 4.6 mph - 0.12 in Rain Rain
11:53 PM 68.0 °F - N/A% 29.83 in 10.0 mi SE 5.8 mph - 0.13 in   Mostly Cloudy